Location: ??????
(56.0120°N, 39.1740°E)
Time: 07:05:20
(UTC+00:00)

FENGYUN 3A - Pass Details

Date: 14 April 2026
Orbit: 821 x 832 km, 98.7° (Epoch: 13 May)

Event Time Altitude Azimuth Distance (km) Brightness Sun altitude
Rises 23:35:27 0° 16° (NNE) 3,393 8.2 -18.8°
Reaches altitude 10° 23:37:49 10° 18° (NNE) 2,455 7.2 -18.6°
Maximum altitude 23:43:17 81° 105° (ESE) 850 3.7 -18.2°
Enters shadow 23:46:18 28° 191° (SSW) 1,531 4.5 -17.9°
